Zurück zum Katalog

NOAA 16 DEB

AktivPO
NORAD 42347·DEBRIS·🇺🇸 United States

Gestartet Sep 21, 2000 von Vandenberg Space Force Base

Loading…

Nächste Überflüge (nächste 24 Stunden)

TLE

AktuellSource: Space-Track

Epoche: Sep 13, 2026, 08:37 UTC

1 42347U 00055QP  26256.35924581  .00004190  00000-0  98844-3 0  9998
2 42347  98.9575 101.1115 0031803 207.0889 152.8647 14.54521059555356

Verfolge NOAA 16 DEB in Echtzeit mit AllMySat

Download on the App Store